When you browse on this site, cookies collect data to enhance your experience and personalize the content and advertising you see.
Visit our Privacy Policy to learn more. By continuing to use the site, you agree to this use of cookies and data.
  • In Schweiz
  • Länderverzeichnis
  • Für 7 Tage
  • Wassertemperatur
  • Satellitenkarten
  • Wetterkarte
  • Widgets
  • user-avatar
    Anmelden

    Stündliche Wetter Innsbruck

    Heute, 23 März, Samstag

    Zeit Temperatur Niederschläge Wind Luftdruck Luftfeuchtigkeit
    00:00 -1°C° 0 mm 1 m/S 600 mmHg 67%
    01:00 0°C° 0 mm 1 m/S 600 mmHg 61%
    02:00 -1°C° 0 mm 1 m/S 600 mmHg 62%
    03:00 -1°C° 0 mm 1 m/S 600 mmHg 64%
    04:00 -1°C° 0 mm 1 m/S 599 mmHg 65%
    05:00 -1°C° 0 mm 1 m/S 599 mmHg 65%
    06:00 -1°C° 0 mm 1 m/S 600 mmHg 66%
    07:00 -1°C° 0 mm 1 m/S 600 mmHg 62%
    08:00 +2°C° 0 mm 1 m/S 601 mmHg 64%
    09:00 +4°C° 0 mm 1 m/S 602 mmHg 65%
    10:00 +6°C° 0 mm 0 m/S 602 mmHg 66%
    11:00 +6°C° 0 mm 0 m/S 602 mmHg 64%
    12:00 +8°C° 0 mm 1 m/S 602 mmHg 61%
    13:00 +8°C° 0 mm 1 m/S 602 mmHg 59%
    14:00 +8°C° 0 mm 1 m/S 602 mmHg 61%
    15:00 +8°C° 0 mm 1 m/S 602 mmHg 63%
    16:00 +7°C° 0 mm 1 m/S 601 mmHg 65%
    17:00 +5°C° 0 mm 1 m/S 600 mmHg 71%
    18:00 +3°C° 0 mm 1 m/S 599 mmHg 77%
    19:00 -1°C° 0 mm 0 m/S 598 mmHg 83%
    20:00 -1°C° 0 mm 0 m/S 599 mmHg 83%
    21:00 0°C° 0 mm 1 m/S 599 mmHg 83%
    22:00 -1°C° 0 mm 1 m/S 599 mmHg 84%
    23:00 -1°C° 0 mm 1 m/S 599 mmHg 81%

    Morgen, 24 März, Sonntag

    Zeit Temperatur Niederschläge Wind Luftdruck Luftfeuchtigkeit
    00:00 -1°C° 0 mm 1 m/S 599 mmHg 79%
    01:00 -1°C° 0 mm 1 m/S 599 mmHg 77%
    02:00 -3°C° 0 mm 2 m/S 599 mmHg 74%
    03:00 -3°C° 0 mm 2 m/S 598 mmHg 71%
    04:00 -3°C° 0 mm 2 m/S 598 mmHg 69%
    05:00 -3°C° 0 mm 2 m/S 598 mmHg 66%
    06:00 -3°C° 0 mm 2 m/S 598 mmHg 64%
    07:00 -3°C° 0 mm 2 m/S 598 mmHg 62%
    08:00 +2°C° 0 mm 1 m/S 599 mmHg 60%
    09:00 +5°C° 0 mm 1 m/S 600 mmHg 58%
    10:00 +7°C° 0 mm 1 m/S 600 mmHg 56%
    11:00 +8°C° 0 mm 1 m/S 600 mmHg 55%
    12:00 +8°C° 0 mm 1 m/S 600 mmHg 55%
    13:00 +9°C° 0 mm 1 m/S 600 mmHg 54%
    14:00 +9°C° 0 mm 1 m/S 600 mmHg 57%
    15:00 +8°C° 0 mm 1 m/S 599 mmHg 60%
    16:00 +7°C° 0 mm 2 m/S 599 mmHg 63%
    17:00 +5°C° 0 mm 1 m/S 598 mmHg 72%
    18:00 +3°C° 0 mm 1 m/S 597 mmHg 80%
    19:00 +1°C° 0 mm 1 m/S 596 mmHg 89%
    20:00 +1°C° 0 mm 1 m/S 596 mmHg 90%
    21:00 +1°C° 0 mm 1 m/S 596 mmHg 92%
    22:00 0°C° 0 mm 1 m/S 596 mmHg 93%
    23:00 0°C° 0 mm 1 m/S 596 mmHg 93%

    übermorgen, 25 März, Montag

    Zeit Temperatur Niederschläge Wind Luftdruck Luftfeuchtigkeit
    00:00 0°C° 0 mm 1 m/S 596 mmHg 92%
    01:00 -1°C° 0 mm 1 m/S 596 mmHg 91%
    02:00 -1°C° 0 mm 1 m/S 595 mmHg 91%
    03:00 -1°C° 0 mm 1 m/S 595 mmHg 90%
    04:00 -2°C° 0 mm 1 m/S 594 mmHg 90%
    05:00 -2°C° 0 mm 1 m/S 594 mmHg 90%
    06:00 -1°C° 0 mm 1 m/S 594 mmHg 91%
    07:00 -1°C° 0 mm 1 m/S 594 mmHg 91%
    08:00 -2°C° 0.1 mm 2 m/S 595 mmHg 87%
    09:00 -1°C° 0.1 mm 2 m/S 595 mmHg 84%
    10:00 +1°C° 0.1 mm 2 m/S 595 mmHg 80%
    11:00 -1°C° 0.2 mm 3 m/S 595 mmHg 80%
    12:00 -1°C° 0.2 mm 3 m/S 594 mmHg 80%
    13:00 -1°C° 0.2 mm 3 m/S 594 mmHg 79%
    14:00 -2°C° 0.3 mm 3 m/S 594 mmHg 81%
    15:00 -4°C° 0.3 mm 4 m/S 593 mmHg 83%
    16:00 -5°C° 0.3 mm 4 m/S 593 mmHg 85%
    17:00 -7°C° 0.9 mm 4 m/S 593 mmHg 88%
    18:00 -9°C° 0.9 mm 4 m/S 593 mmHg 90%
    19:00 -10°C° 0.9 mm 4 m/S 593 mmHg 93%
    20:00 -11°C° 0.3 mm 4 m/S 593 mmHg 92%
    21:00 -10°C° 0.3 mm 3 m/S 594 mmHg 91%
    22:00 -12°C° 0.3 mm 3 m/S 594 mmHg 90%
    23:00 -12°C° 0.2 mm 3 m/S 594 mmHg 90%

    26 März, Dienstag

    Zeit Temperatur Niederschläge Wind Luftdruck Luftfeuchtigkeit
    00:00 -12°C° 0.2 mm 3 m/S 595 mmHg 89%
    01:00 -12°C° 0.2 mm 3 m/S 595 mmHg 88%
    02:00 -12°C° 0.2 mm 3 m/S 595 mmHg 89%
    03:00 -10°C° 0.2 mm 2 m/S 596 mmHg 90%
    04:00 -10°C° 0.2 mm 2 m/S 596 mmHg 90%
    05:00 -10°C° 0.1 mm 2 m/S 596 mmHg 90%
    06:00 -10°C° 0.1 mm 2 m/S 597 mmHg 89%
    07:00 -12°C° 0.1 mm 2 m/S 597 mmHg 89%
    08:00 -9°C° 0 mm 2 m/S 598 mmHg 81%
    09:00 -8°C° 0 mm 2 m/S 598 mmHg 73%
    10:00 -7°C° 0 mm 2 m/S 599 mmHg 65%
    11:00 -7°C° 0 mm 3 m/S 599 mmHg 63%
    12:00 -6°C° 0 mm 3 m/S 599 mmHg 62%
    13:00 -6°C° 0 mm 3 m/S 599 mmHg 60%
    14:00 -6°C° 0 mm 3 m/S 599 mmHg 62%
    15:00 -6°C° 0 mm 3 m/S 599 mmHg 63%
    16:00 -6°C° 0 mm 3 m/S 599 mmHg 65%
    17:00 -7°C° 0 mm 2 m/S 598 mmHg 73%
    18:00 -8°C° 0 mm 2 m/S 598 mmHg 82%
    19:00 -9°C° 0 mm 1 m/S 597 mmHg 91%
    20:00 -9°C° 0 mm 1 m/S 598 mmHg 91%
    21:00 -9°C° 0 mm 1 m/S 598 mmHg 91%
    22:00 -10°C° 0 mm 1 m/S 598 mmHg 90%
    23:00 -10°C° 0 mm 1 m/S 598 mmHg 86%

    27 März, Mittwoch

    Zeit Temperatur Niederschläge Wind Luftdruck Luftfeuchtigkeit
    00:00 -10°C° 0 mm 1 m/S 598 mmHg 82%
    01:00 -10°C° 0 mm 1 m/S 598 mmHg 78%
    02:00 -10°C° 0 mm 1 m/S 598 mmHg 72%
    03:00 -10°C° 0 mm 1 m/S 598 mmHg 67%
    04:00 -10°C° 0 mm 1 m/S 597 mmHg 61%
    05:00 -10°C° 0 mm 1 m/S 598 mmHg 60%
    06:00 -9°C° 0 mm 1 m/S 598 mmHg 58%
    07:00 -9°C° 0 mm 1 m/S 598 mmHg 56%
    08:00 -8°C° 0 mm 2 m/S 599 mmHg 55%
    09:00 -5°C° 0 mm 2 m/S 600 mmHg 53%
    10:00 -3°C° 0 mm 2 m/S 601 mmHg 51%
    11:00 -3°C° 0 mm 2 m/S 601 mmHg 53%
    12:00 -2°C° 0 mm 2 m/S 601 mmHg 55%
    13:00 -1°C° 0 mm 2 m/S 601 mmHg 58%
    14:00 -1°C° 0 mm 2 m/S 601 mmHg 61%
    15:00 -2°C° 0 mm 2 m/S 601 mmHg 64%
    16:00 -2°C° 0 mm 2 m/S 600 mmHg 68%
    17:00 -3°C° 0 mm 2 m/S 600 mmHg 76%
    18:00 -5°C° 0 mm 2 m/S 600 mmHg 85%
    19:00 -6°C° 0 mm 2 m/S 599 mmHg 93%
    20:00 -6°C° 0 mm 1 m/S 600 mmHg 93%
    21:00 -6°C° 0 mm 1 m/S 600 mmHg 94%
    22:00 -6°C° 0 mm 1 m/S 600 mmHg 94%
    23:00 -7°C° 0 mm 1 m/S 600 mmHg 94%

    28 März, Donnerstag

    Zeit Temperatur Niederschläge Wind Luftdruck Luftfeuchtigkeit
    00:00 -7°C° 0 mm 1 m/S 600 mmHg 93%
    01:00 -7°C° 0 mm 1 m/S 600 mmHg 93%
    02:00 -7°C° 0 mm 1 m/S 600 mmHg 92%
    03:00 -8°C° 0 mm 1 m/S 600 mmHg 91%
    04:00 -8°C° 0 mm 1 m/S 599 mmHg 90%
    05:00 -8°C° 0 mm 1 m/S 600 mmHg 88%
    06:00 -7°C° 0 mm 1 m/S 600 mmHg 86%
    07:00 -7°C° 0 mm 1 m/S 600 mmHg 84%
    08:00 -4°C° 0 mm 1 m/S 601 mmHg 77%
    09:00 -2°C° 0 mm 1 m/S 602 mmHg 70%
    10:00 -2°C° 0 mm 2 m/S 602 mmHg 63%
    11:00 -1°C° 0 mm 2 m/S 602 mmHg 61%
    12:00 -1°C° 0 mm 2 m/S 602 mmHg 60%
    13:00 +1°C° 0 mm 2 m/S 603 mmHg 58%
    14:00 +1°C° 0 mm 2 m/S 602 mmHg 60%
    15:00 +1°C° 0 mm 2 m/S 602 mmHg 62%
    16:00 +1°C° 0 mm 2 m/S 602 mmHg 65%
    17:00 0°C° 0 mm 1 m/S 601 mmHg 74%
    18:00 -2°C° 0 mm 1 m/S 601 mmHg 83%
    19:00 -4°C° 0 mm 1 m/S 600 mmHg 93%
    20:00 -4°C° 0 mm 1 m/S 600 mmHg 93%
    21:00 -5°C° 0 mm 0 m/S 600 mmHg 93%
    22:00 -5°C° 0 mm 0 m/S 601 mmHg 93%
    23:00 -4°C° 0 mm 1 m/S 601 mmHg 91%
    Mehr zeigen